Regional Weather Roundup
Issued by NWS San Diego, CA

Home | Current Version | Previous Version | Text Only | Print | Product List | Glossary On
Versions: 1 2 3 4 5 6 7 8 9 10 11 12 13 14 15 16 17 18 19 20 21 22 23 24 25 26 27 28 29 30 31 32 33 34 35 36 37 38 39 40 41 42 43 44 45 46 47 48 49 50
000
ASUS46 KSGX 042111
RWRSGX

SAN DIEGO HOURLY WEATHER ROUNDUP
NATIONAL WEATHER SERVICE SAN DIEGO CA
200 PM PDT WED MAY 04 2016

NOTE: "FAIR" INDICATES FEW OR NO CLOUDS BELOW 12,000 FEET WITH NO
SIGNIFICANT WEATHER AND/OR OBSTRUCTIONS TO VISIBILITY.

CAZ042-043-060-061-PZZ750-775-042200-

GREATER SAN DIEGO AREA

CITY           SKY/WX    TMP DP  RH WIND       PRES   REMARKS
LINDBERGH FLD  MOSUNNY   65  53  65 SW9       29.95F
POINT LOMA       N/A     68  43  39 W14         N/A
NATIONAL CITY    N/A     66  56  69 S5        29.95S
CHULA VISTA      N/A     67  58  73 W5        29.87F
IMPERIAL BEACH MOSUNNY   68  53  58 W13       29.95F
BROWN FIELD    SUNNY     67  54  63 SW8       29.93F
MIRAMAR MCAS   MOSUNNY   72  53  51 W9        29.93F
MONTGOMERY FLD MOSUNNY   69  53  56 VRB7      29.93F

$$

NORTH SAN DIEGO COUNTY

CITY           SKY/WX    TMP DP  RH WIND       PRES   REMARKS
CAMP PENDLETON MOSUNNY   66  55  67 SW10      29.92F
OCEANSIDE AP   PTSUNNY   66  53  63 SW9       29.93F
OCEANSIDE HBR    N/A     62  57  83 W10       29.96F
VISTA            N/A     66  58  73 SW3       29.91F
CARLSBAD       MOSUNNY   65  54  67 SW10      29.93S
DEL MAR          N/A     66  57  71 NW3       29.97F
LA JOLLA SCRIP   N/A     61  56  84 SW6       29.94F
FALLBROOK        N/A     72  60  65 S3        29.90F
ESCONDIDO        N/A     75  58  55 W12       29.92F
SAN MARCOS       N/A     69  56  63 W13       29.91F
POWAY            N/A     76  57  52 CALM      29.92F

$$

EAST SAN DIEGO COUNTY

CITY           SKY/WX    TMP DP  RH WIND       PRES   REMARKS
RAMONA         SUNNY     76  54  46 W9        29.92F
SANTEE LAKES     N/A     73  57  56 S6        29.90F
LA MESA          N/A     70  56  61 CALM      29.86S
JAMUL            N/A     73  58  58 W6        29.91F
DESCANSO N       N/A     75  50  42 W8        29.77F
MT. LAGUNA OBS   N/A     65  36  33 SE10      29.66
CAMPO            N/A     77  44  30 SW9       29.90F

$$

ORANGE COUNTY AND THE LOS ANGELES BASIN

CITY           SKY/WX    TMP DP  RH WIND       PRES   REMARKS
JOHN WAYNE AP  MOSUNNY   67  55  65 S10       29.93F
LAKE FOREST FR   N/A     74  54  48 SW3       29.81F
HUNTINGTON BCH   N/A     67  59  76 NW6       29.96S
LOS ALAMITOS   FAIR      69  56  63 SW13      29.93S
FULLERTON      MOSUNNY   69  54  58 S9        29.91F
LONG BEACH     MOSUNNY   66  54  65 S10       29.93F
L.A. AP        PTSUNNY   64  53  67 W16       29.94F
L.A. DOWNTOWN  MOSUNNY   67  54  63 W8        29.93R

$$

THE INLAND EMPIRE

CITY           SKY/WX    TMP DP  RH WIND       PRES   REMARKS
CORONA         SUNNY     75  56  51 W14G24    29.89F
CHINO          MOSUNNY   80  54  40 SW15G22   29.90F
ONTARIO        MOSUNNY   78  51  38 W12       29.89F
SAN BERNARDINO MOSUNNY   82  48  30 SW6       29.89F
RIVERSIDE AP   PTSUNNY   78  52  40 VRB7      29.88F
MORENO VALLEY    N/A     82  55  40 SW2       28.02F
MARCH ARB      SUNNY     79  53  41 W9        29.89F
HORSETHIEF CYN   N/A     78  49  36 E7        29.89F
PERRIS           N/A     79  56  44 NW3       29.87F
HEMET EAST       N/A     85  34  15 CALM      29.81S
FRENCH VALLEY  FAIR      73  52  46 SW9       29.91F
TEMECULA         N/A     74  58  57 W10       29.87S

$$

SAN BERNARDINO AND RIVERSIDE COUNTY MOUNTAINS

CITY           SKY/WX    TMP DP  RH WIND       PRES   REMARKS
BIG BEAR AP    SUNNY     63  32  31 S6        30.09F
ANGELUS OAKS     N/A     65  45  47 CALM      29.80F
PINE COVE        N/A     65  43  45 NW3       29.85F

$$

SOUTHERN DESERT INCLUDING THE COACHELLA VALLEY

CITY           SKY/WX    TMP DP  RH WIND       PRES   REMARKS
PALM SPRINGS   SUNNY     97  34  11 E15G23    29.78F
THOUSAND PALMS   N/A     96  35  12 NE13      29.75F
PALM DESERT      N/A     98  39  13 S5        26.91S
THERMAL        SUNNY     98  29   8 SE16G24   29.73F
BLYTHE         SUNNY     98  32  10 CALM      29.76F
IMPERIAL AP    SUNNY     98  35  11 SE12      29.75F
EL CENTRO NAS  MOSUNNY   96  34  11 MISG      29.77F
YUMA AZ        MOSUNNY   98  33  10 S12       29.77
MEXICALI       SUNNY     95  32  11 S6        29.78F

$$

UPPER DESERT

CITY           SKY/WX    TMP DP  RH WIND       PRES   REMARKS
VICTORVILLE AP MOSUNNY   81  30  16 S20G35    29.92S
HESPERIA         N/A     80  42  26 W9        29.93F
PALMDALE       SUNNY     82  29  14 S20G26    29.89F
LANCASTER      MOSUNNY   84  31  14 SW21G28   29.87F
EDWARDS AFB    PTSUNNY   85  30  13 SW12      29.84F
DAGGETT        SUNNY     90  26  10 VRB5G22   29.81F
29 PALMS N     MOSUNNY   89  20   8 S20G28    29.92F
NEEDLES        SUNNY    100  25   7 SW17G28   29.79F

$$

REGIONAL REPORTS

CITY           SKY/WX    TMP DP  RH WIND       PRES   REMARKS
SANTA BARBARA  PTSUNNY   63  54  72 S7        29.96R
SANDBERG       MOSUNNY   70  37  29 SE15G28   29.99F
LAS VEGAS NV   MOSUNNY   90  31  12 SE9       29.84F
PHOENIX AZ     MOSUNNY  101  24   6 SW12G21   29.80F
TIJUANA        SUNNY     68  50  52 W6        29.96F
ENSENADA NW      N/A     63  32  31 W9        29.93F

$$

OFFSHORE ISLANDS

CITY           SKY/WX    TMP DP  RH WIND       PRES   REMARKS
CATALINA ARPT  CLOUDY    55  49  80 W14       29.96F
SAN CLEMENTE I PTSUNNY   62  50  64 W8        29.97F
SAN NICOLAS IS PTSUNNY   58  53  84 N6        29.96S

$$

MARINE AND OFFSHORE BUOY REPORTS

STATION/POSITION SKY/WX   TEMP    WIND        PRES    SWELL
                          AIR SEA DIR/SP/G            HT/PER/DIR
                          (F)     (DEG/KT/KT) (MB)    (FT/S/D)
TANNER BANKS               61 65  190/  2/  4 1014.7F   5/260/12
S CLEMENTE BASIN           59 63  280/  6/  8 1014.4F   5/270/14
SAN NICOLAS IS.               60                N/A     5/250/13
SO. S. ROSA ISLA           58 58  170/  2/  4 1014.9S   5/250/13
W. S. BARBARA CH           57 58  140/  4/  6 1014.2F   5/270/12
M. S. BARBARA CH           57 57   90/  2/  4 1015.3F
S. MONICA BASIN            58 62  230/  6/  8 1014.8F   3/230/13
OCEANSIDE OFFSHR              65                N/A     3/220/17
TORREY PINES OTR              65                N/A     3/220/13
LA JOLLA 1                 61 66  250/  6/  8 1014.1F
SAN DIEGO BAY                 68              1014.3F
POINT LOMA SOUTH              64                N/A     3/230/13

$$




USA.gov is the U.S. government's official web portal to all federal, state and local government web resources and services.